カタログに戻る

DELTA 1 DEB

運用中SSO
NORAD 42091·DEBRIS·🇺🇸 United States

打ち上げ Dec 15, 1968 から Vandenberg Space Force Base

Loading…

次のパス (今後24時間)

TLE

最新Source: Space-Track

元期: Sep 12, 2026, 16:26 UTC

1 42091U 68114T   26255.68537233  .00000013  00000-0  37779-3 0  9993
2 42091 101.4960 228.4240 0036357 131.4785  41.5809 12.47227537583029

AllMySatでDELTA 1 DEBをリアルタイム追跡

Download on the App Store